EW0345 Weather Reports


time (UTC)temp
C
wind
direction
speed
KPH
gust
KPH
rain 1hr
cm
rain 24hr
cm
rain mn
cm
humidity
%
barometer
mb
20260504231608 20 0.0 0.0 0.00 0.03 0.03 38 1007.2
20260504230041 20 0.0 0.0 0.00 0.03 0.03 36 1006.8
20260504224541 20 0.0 0.0 0.00 0.05 0.03 36 1006.4
20260504223035 20 0.0 0.0 0.00 0.05 0.03 35 1006.4
20260504221607 20 0.0 0.0 0.00 0.05 0.03 34 1006.3
20260504220042 21 0.0 0.0 0.00 0.05 0.03 34 1006.5
20260504214541 21 0.0 0.0 0.00 0.05 0.03 33 1006.6
20260504213043 21 0.0 0.0 0.00 0.05 0.03 32 1006.4
20260504211538 21 0.0 0.0 0.00 0.05 0.03 32 1006.5
20260504210035 21 0.0 0.0 0.00 0.05 0.03 33 1006.4
20260504204542 21 0.0 0.0 0.00 0.05 0.03 33 1006.4
20260504203041 21 0.0 0.0 0.00 0.05 0.03 34 1006.5
20260504201543 21 0.0 0.0 0.00 0.05 0.03 31 1006.4
20260504200036 21 0.0 0.0 0.00 0.05 0.03 32 1006.6
20260504194535 21 0.0 0.0 0.00 0.05 0.03 33 1006.6
20260504193048 22 0.0 0.0 0.00 0.05 0.03 31 1006.7
20260504191607 21 0.0 0.0 0.00 0.05 0.03 33 1006.7
20260504190041 21 0.0 0.0 0.00 0.05 0.03 33 1006.8
20260504184549 20 0.0 0.0 0.00 0.05 0.03 33 1006.9
20260504183035 20 0.0 0.0 0.00 0.05 0.03 33 1007.0
20260504181541 21 0.0 0.0 0.00 0.05 0.03 31 1007.1
20260504180041 21 0.0 0.0 0.00 0.05 0.03 31 1007.2
20260504174541 21 0.0 0.0 0.00 0.05 0.03 32 1007.2
20260504173039 21 0.0 0.0 0.00 0.05 0.03 32 1007.1
20260504171540 21 0.0 0.0 0.00 0.05 0.03 30 1007.2
20260504081545 4 0.0 0.0 0.00 0.05 0.00 77 1010.4
20260504044538 3 0.0 0.0 0.00 0.05 0.00 74 1010.7
20260504043045 3 0.0 0.0 0.00 0.05 0.00 75 1010.6
20260504041543 2 0.0 0.0 0.00 0.05 0.00 78 1010.4
20260504040043 2 0.0 0.0 0.00 0.05 0.00 80 1010.4
20260504034552 2 0.0 0.0 0.00 0.05 0.05 82 1010.4
20260504033049 2 0.0 0.0 0.00 0.05 0.05 82 1010.3
20260504031540 2 0.0 0.0 0.00 0.05 0.05 81 1010.4
20260504030038 3 0.0 0.0 0.00 0.05 0.05 79 1010.4
20260504024541 3 0.0 0.0 0.00 0.05 0.05 78 1010.3
20260504023043 3 0.0 0.0 0.00 0.05 0.05 76 1010.3
20260504021543 3 0.0 0.0 0.00 0.05 0.05 77 1010.4
20260504020039 4 0.0 0.0 0.00 0.05 0.05 75 1010.3
20260504014540 4 0.0 0.0 0.00 0.05 0.05 73 1010.2
20260504013038 5 0.0 0.0 0.00 0.05 0.05 73 1010.0
20260504011541 5 0.0 0.0 0.00 0.05 0.05 71 1009.9
20260504010044 5 0.0 0.0 0.00 0.05 0.05 68 1009.8
20260504004542 6 0.0 0.0 0.00 0.08 0.05 65 1009.6
20260504003043 6 0.0 0.0 0.00 0.08 0.05 64 1009.4
20260504001539 7 0.0 0.0 0.00 0.08 0.05 58 1009.2
20260504000051 7 0.0 0.0 0.00 0.08 0.05 57 1009.2
20260503234535 8 0.0 0.0 0.00 0.08 0.05 54 1009.0
20260503233043 8 0.0 0.0 0.03 0.08 0.05 50 1008.9